| time (UTC) | temp F | wind direction | speed MPH | gust MPH | rain 1hr in | rain 24hr in | rain mn in | humidity % | barometer mb |
| 20260505153018 | 76 | 237 | 4.0 | 12.0 | 0.00 | 0.00 | 0.00 | 66 | 1014.1 |
| 20260505151521 | 75 | 144 | 4.0 | 14.0 | 0.00 | 0.00 | 0.00 | 67 | 1014.3 |
| 20260505124524 | 56 | 120 | 0.0 | 0.0 | 0.00 | 0.00 | 0.00 | 94 | 1014.2 |
| 20260505123028 | 54 | 120 | 0.0 | 0.0 | 0.00 | 0.00 | 0.00 | 94 | 1014.2 |
| 20260505121513 | 53 | 120 | 0.0 | 0.0 | 0.00 | 0.00 | 0.00 | 94 | 1014.0 |
| 20260505120020 | 52 | 120 | 0.0 | 0.0 | 0.00 | 0.00 | 0.00 | 94 | 1013.9 |
| 20260505114522 | 51 | 120 | 0.0 | 0.0 | 0.00 | 0.00 | 0.00 | 94 | 1013.9 |
| 20260505113030 | 50 | 120 | 0.0 | 0.0 | 0.00 | 0.00 | 0.00 | 94 | 1013.8 |
| 20260505111511 | 50 | 120 | 0.0 | 0.0 | 0.00 | 0.00 | 0.00 | 93 | 1013.5 |
| 20260505101513 | 51 | 118 | 0.0 | 0.0 | 0.00 | 0.00 | 0.00 | 93 | 1013.7 |
| 20260505100013 | 51 | 118 | 0.0 | 0.0 | 0.00 | 0.00 | 0.00 | 94 | 1013.7 |
| 20260505094524 | 51 | 118 | 0.0 | 0.0 | 0.00 | 0.00 | 0.00 | 93 | 1013.5 |
| 20260505093004 | 51 | 119 | 0.0 | 0.0 | 0.00 | 0.00 | 0.00 | 93 | 1013.3 |
| 20260505091507 | 51 | 118 | 0.0 | 0.0 | 0.00 | 0.00 | 0.00 | 93 | 1013.3 |
| 20260505090009 | 51 | 118 | 0.0 | 0.0 | 0.00 | 0.00 | 0.00 | 93 | 1013.2 |
| 20260505084517 | 51 | 118 | 0.0 | 0.0 | 0.00 | 0.00 | 0.00 | 92 | 1013.3 |
| 20260505083019 | 52 | 118 | 0.0 | 0.0 | 0.00 | 0.00 | 0.00 | 92 | 1013.3 |
| 20260505081504 | 52 | 118 | 0.0 | 0.0 | 0.00 | 0.00 | 0.00 | 92 | 1013.4 |
| 20260505080006 | 52 | 118 | 0.0 | 0.0 | 0.00 | 0.00 | 0.00 | 91 | 1013.7 |
| 20260505074508 | 52 | 119 | 0.0 | 0.0 | 0.00 | 0.00 | 0.00 | 91 | 1013.7 |
| 20260505073020 | 53 | 119 | 0.0 | 0.0 | 0.00 | 0.00 | 0.00 | 92 | 1013.9 |
| 20260505071518 | 53 | 119 | 0.0 | 0.0 | 0.00 | 0.00 | 0.00 | 92 | 1014.0 |
| 20260505070035 | 53 | 119 | 0.0 | 0.0 | 0.00 | 0.00 | 0.00 | 91 | 1014.3 |
| 20260505064508 | 53 | 118 | 0.0 | 0.0 | 0.00 | 0.00 | 0.00 | 90 | 1014.2 |
| 20260505063012 | 54 | 118 | 0.0 | 0.0 | 0.00 | 0.00 | 0.00 | 89 | 1014.2 |
| 20260505061523 | 55 | 118 | 0.0 | 0.0 | 0.00 | 0.00 | 0.00 | 88 | 1014.4 |
| 20260505060021 | 55 | 118 | 0.0 | 0.0 | 0.00 | 0.00 | 0.00 | 87 | 1014.5 |
| 20260505054530 | 56 | 118 | 0.0 | 0.0 | 0.00 | 0.00 | 0.00 | 86 | 1014.8 |
| 20260505053007 | 56 | 118 | 0.0 | 0.0 | 0.00 | 0.00 | 0.00 | 84 | 1014.7 |
| 20260505051520 | 57 | 118 | 0.0 | 0.0 | 0.00 | 0.00 | 0.00 | 83 | 1014.7 |
| 20260505041510 | 59 | 147 | 0.0 | 0.0 | 0.00 | 0.00 | 0.00 | 78 | 1014.9 |
| 20260505040018 | 61 | 141 | 0.0 | 2.0 | 0.00 | 0.00 | 0.00 | 76 | 1014.7 |
| 20260505034524 | 62 | 120 | 0.0 | 5.0 | 0.00 | 0.00 | 0.00 | 74 | 1014.7 |
| 20260505033025 | 62 | 133 | 1.0 | 4.0 | 0.00 | 0.00 | 0.00 | 73 | 1014.6 |
| 20260505031537 | 63 | 139 | 1.0 | 5.0 | 0.00 | 0.00 | 0.00 | 72 | 1014.6 |
| 20260505030012 | 63 | 181 | 0.0 | 5.0 | 0.00 | 0.00 | 0.00 | 72 | 1014.4 |
| 20260505024517 | 63 | 125 | 0.0 | 4.0 | 0.00 | 0.00 | 0.00 | 73 | 1014.4 |
| 20260505023020 | 63 | 121 | 0.0 | 2.0 | 0.00 | 0.00 | 0.00 | 72 | 1014.5 |
| 20260505021506 | 63 | 151 | 1.0 | 5.0 | 0.00 | 0.00 | 0.00 | 71 | 1014.5 |
| 20260505020007 | 63 | 85 | 1.0 | 2.0 | 0.00 | 0.00 | 0.00 | 73 | 1014.3 |
| 20260505014512 | 63 | 130 | 0.0 | 1.0 | 0.00 | 0.00 | 0.00 | 75 | 1014.1 |
| 20260505013018 | 64 | 114 | 0.0 | 1.0 | 0.00 | 0.00 | 0.00 | 75 | 1014.1 |
| 20260505011521 | 65 | 176 | 0.0 | 1.0 | 0.00 | 0.00 | 0.00 | 73 | 1013.9 |
| 20260505010006 | 67 | 176 | 0.0 | 0.0 | 0.00 | 0.00 | 0.00 | 68 | 1013.9 |
| 20260505004512 | 70 | 176 | 0.0 | 2.0 | 0.00 | 0.00 | 0.00 | 60 | 1013.9 |
| 20260505003015 | 73 | 194 | 1.0 | 4.0 | 0.00 | 0.00 | 0.00 | 55 | 1013.8 |
| 20260505001521 | 76 | 115 | 2.0 | 4.0 | 0.00 | 0.00 | 0.00 | 49 | 1013.6 |
| 20260505000025 | 77 | 205 | 0.0 | 7.0 | 0.00 | 0.00 | 0.00 | 48 | 1013.7 |
| 20260504234509 | 77 | 136 | 4.0 | 8.0 | 0.00 | 0.00 | 0.00 | 46 | 1013.7 |
| 20260504233012 | 78 | 215 | 3.0 | 8.0 | 0.00 | 0.00 | 0.00 | 44 | 1013.8 |
| 20260504231517 | 79 | 134 | 2.0 | 6.0 | 0.00 | 0.00 | 0.00 | 43 | 1013.8 |
| 20260504230023 | 79 | 213 | 3.0 | 8.0 | 0.00 | 0.00 | 0.00 | 41 | 1013.9 |
| 20260504224524 | 80 | 141 | 4.0 | 7.0 | 0.00 | 0.00 | 0.00 | 42 | 1014.1 |
| 20260504223013 | 80 | 219 | 3.0 | 7.0 | 0.00 | 0.00 | 0.00 | 39 | 1014.3 |
| 20260504221515 | 80 | 198 | 2.0 | 8.0 | 0.00 | 0.00 | 0.00 | 39 | 1014.4 |
| 20260504220019 | 81 | 174 | 0.0 | 10.0 | 0.00 | 0.00 | 0.00 | 38 | 1014.4 |
| 20260504214525 | 81 | 229 | 3.0 | 7.0 | 0.00 | 0.00 | 0.00 | 39 | 1014.6 |
| 20260504213037 | 81 | 105 | 2.0 | 9.0 | 0.00 | 0.00 | 0.00 | 38 | 1014.6 |
| 20260504211510 | 80 | 237 | 6.0 | 14.0 | 0.00 | 0.00 | 0.00 | 36 | 1014.6 |
| 20260504210014 | 81 | 243 | 2.0 | 10.0 | 0.00 | 0.00 | 0.00 | 38 | 1014.7 |
| 20260504204534 | 80 | 271 | 6.0 | 12.0 | 0.00 | 0.00 | 0.00 | 38 | 1014.9 |
| 20260504203026 | 80 | 243 | 2.0 | 8.0 | 0.00 | 0.00 | 0.00 | 39 | 1015.1 |
| 20260504201525 | 81 | 219 | 4.0 | 11.0 | 0.00 | 0.00 | 0.00 | 38 | 1015.4 |
| 20260504200011 | 81 | 174 | 4.0 | 9.0 | 0.00 | 0.00 | 0.00 | 37 | 1015.6 |
| 20260504194518 | 81 | 256 | 3.0 | 12.0 | 0.00 | 0.00 | 0.00 | 38 | 1015.8 |
| 20260504193023 | 81 | 152 | 5.0 | 9.0 | 0.00 | 0.00 | 0.00 | 37 | 1016.0 |
| 20260504191525 | 80 | 132 | 2.0 | 9.0 | 0.00 | 0.00 | 0.00 | 39 | 1016.2 |
| 20260504190028 | 80 | 246 | 2.0 | 10.0 | 0.00 | 0.00 | 0.00 | 40 | 1016.2 |
| 20260504184514 | 80 | 131 | 4.0 | 10.0 | 0.00 | 0.00 | 0.00 | 40 | 1016.4 |
| 20260504183020 | 80 | 175 | 2.0 | 9.0 | 0.00 | 0.00 | 0.00 | 39 | 1016.5 |
| 20260504181523 | 80 | 275 | 3.0 | 10.0 | 0.00 | 0.00 | 0.00 | 38 | 1016.7 |
| 20260504180028 | 79 | 221 | 3.0 | 9.0 | 0.00 | 0.00 | 0.00 | 40 | 1016.9 |
| 20260504174525 | 79 | 231 | 1.0 | 6.0 | 0.00 | 0.00 | 0.00 | 40 | 1017.0 |
| 20260504173014 | 79 | 106 | 1.0 | 11.0 | 0.00 | 0.00 | 0.00 | 39 | 1017.2 |
| 20260504171504 | 77 | 259 | 4.0 | 7.0 | 0.00 | 0.00 | 0.00 | 41 | 1017.8 |